Regional Weather Roundup
Issued by NWS

Home | Current Version | Previous Version | Text Only | Print | Product List | Glossary Off
Versions: 1 2 3 4 5 6 7 8 9 10 11 12 13 14 15 16 17 18 19 20 21 22 23 24 25 26 27 28 29 30 31 32 33 34 35 36 37 38 39 40 41 42 43 44 45 46 47 48 49 50

000
ASUS43 KMPX 291501
RWRMN
WEATHER ROUNDUP FOR MINNESOTA
NATIONAL WEATHER SERVICE TWIN CITIES/CHANHASSEN MN
1000 AM CDT THU SEP 29 2016


NOTE: "FAIR" INDICATES FEW OR NO CLOUDS BELOW 12,000 FEET WITH NO
SIGNIFICANT WEATHER AND/OR OBSTRUCTIONS TO VISIBILITY. N/A MEANS
CURRENT SKY AND/OR WEATHER CONDITIONS ARE NOT AVAILABLE.

MNZ060>063-068>070-291600-
   Twin Cities Metro

CITY           SKY/WX    TMP DP  RH WIND       PRES   REMARKS
TWIN CITIES    MOSUNNY   56  49  77 E12       30.48R
ST PAUL        SUNNY     57  50  77 NE9       30.48R
CRYSTAL        MOSUNNY   55  47  74 NE7       30.47R
LAKEVILLE      CLOUDY    50  50 100 E6        30.47S
EDEN PRAIRIE   MOSUNNY   56  49  77 E6        30.47R
LAKEVILLE      CLOUDY    50  50 100 E6        30.47S
SOUTH ST PAUL  SUNNY     56  50  78 NE8       30.47R
LAKE ELMO      FAIR      55  52  88 NE5       30.48S
$$
MNZ001>005-007-008-013>017-022>024-027-028-291600-
   Northwest Minnesota

CITY           SKY/WX    TMP DP  RH WIND       PRES   REMARKS
BEMIDJI        CLOUDY    55  50  82 CALM      30.51R
HALLOCK        SUNNY     57  52  82 S9        30.48R
ROSEAU         CLOUDY    57  48  72 SE7       30.50S
THIEF RVR FALL CLOUDY    56  47  71 SE8       30.50S
CROOKSTON      CLOUDY    55  48  76 S7        30.50S
FOSSTON        CLOUDY    54  52  94 SE5       30.51S
DETROIT LAKES  CLOUDY    52  46  82 CALM      30.51S
MOORHEAD       CLOUDY    52  48  87 SE3       30.51R
PARK RAPIDS    CLOUDY    56  48  74 CALM      30.51R
MAHNOMEN       CLOUDY    52  47  82 E3        30.51R
$$
MNZ006-009>011-018-025>026-291600-
   North Central Minnesota

CITY           SKY/WX    TMP DP  RH WIND       PRES   REMARKS
BAUDETTE       CLOUDY    54  49  83 SE3       30.51S
FLAG ISLAND    CLOUDY    55  46  71 SE8       30.49S
INTL FALLS     CLOUDY    55  50  83 E5        30.52S
WASKISH        CLOUDY    54  52  94 SE3       30.51S
BIG FORK       CLOUDY    55  52  88 CALM      30.52R
GRAND RAPIDS   CLOUDY    54  51  90 CALM      30.53R
ORR            CLOUDY    54  48  82 CALM      30.50S
COOK           CLOUDY    54  52  94 CALM      30.53R
WALKER         CLOUDY    54  51  89 CALM      30.51R
$$
MNZ012-019>021-037-291600-
   Northeast Minnesota

CITY           SKY/WX    TMP DP  RH WIND       PRES   REMARKS
DULUTH         CLOUDY    56  50  80 E8        30.51S
ELY            CLOUDY    52  46  82 CALM      30.53R
HIBBING        CLOUDY    53  50  89 E5        30.52R
EVELETH        CLOUDY    55  50  84 E5        30.53R
DULUTH HARBOR  MOSUNNY   57  52  82 NE14      30.53R
TWO HARBORS    MOSUNNY   61  52  72 E7        30.50R
SILVER BAY     PTSUNNY   57  50  77 NE6       30.50S
GRAND MARAIS     N/A     59  44  57 E6        30.51S
G MARAIS ARPRT CLOUDY    54  43  66 N7        30.53S
$$
MNZ029>031-032-039>041-046>048-054>057-064-291600-
   West Central Minnesota

CITY           SKY/WX    TMP DP  RH WIND       PRES   REMARKS
FERGUS FALLS   CLOUDY    55  48  76 SE3       30.52S
MORRIS         SUNNY     61  48  63 E6        30.49R
ALEXANDRIA     CLOUDY    56  49  77 E6        30.52R
ELBOW LAKE     CLOUDY    54  48  80 SE3       30.50R
WADENA         CLOUDY    54  48  82 CALM      30.51R
GLENWOOD       MOSUNNY   55  50  82 E6        30.50S
BENSON         SUNNY     57  48  72 SE7       30.49S
ORTONVILLE     SUNNY     55  50  82 CALM      30.49S
MADISON        SUNNY     57  52  82 CALM      30.49S
WILLMAR        FAIR      57  52  82 E10       30.51R
$$
MNZ033>034-036-042>043-049>051-058-059-291600-
   Central Minnesota

CITY           SKY/WX    TMP DP  RH WIND       PRES   REMARKS
ST CLOUD       SUNNY     57  50  77 E9        30.50R
SAUK CENTRE    CLOUDY    55  49  82 E5        30.51R
PAYNESVILLE    SUNNY     56  49  77 E6        30.51R
AITKIN         CLOUDY    57  50  77 CALM      30.50R
PINE RIVER     CLOUDY    54  50  87 CALM      30.53S
BRAINERD       CLOUDY    55  51  86 CALM      30.51R
STAPLES        CLOUDY    54  48  82 CALM      30.51R
LONG PRAIRIE   CLOUDY    54  46  76 NE6       30.51R
LITTLE FALLS   CLOUDY    54  50  87 CALM      30.51R
LITCHFIELD     SUNNY     57  52  82 E9        30.50R
BUFFALO        SUNNY     55  48  78 NE7       30.51R
MAPLE LAKE     SUNNY     56  52  84 E9        30.51R
HUTCHINSON     SUNNY     56  51  82 NE7       30.50R
$$
MNZ037-044-045-052-053-291600-
   East Central Minnesota

CITY           SKY/WX    TMP DP  RH WIND       PRES   REMARKS
PRINCETON      SUNNY     55  52  88 NE6       30.50R
MORA           PTSUNNY   55  48  76 E8        30.52R
CAMBRIDGE      SUNNY     57  46  67 NE7       30.48R
MOOSE LAKE     CLOUDY    55  50  82 E6        30.50R
HINCKLEY       CLOUDY    55  52  88 NE7       30.51R
CLOQUET        CLOUDY    55  48  76 E7        30.51R
MCGREGOR       CLOUDY    54  52  94 NE5       30.51S
$$
MNZ071>073-080-081-089-090-097-098-291600-
   Southwest Minnesota

CITY           SKY/WX    TMP DP  RH WIND       PRES   REMARKS
MONTEVIDEO     SUNNY     59  54  82 E5        30.51R
GRANITE FALLS  SUNNY     55  50  83 N3        30.51R
CANBY          SUNNY     54  49  84 CALM      30.51R
MARSHALL       SUNNY     52  48  86 N3        30.50R
REDWOOD FALLS  CLOUDY    52  48  86 NE3       30.49R
OLIVIA         CLOUDY    54  50  87 E5        30.48S
PIPESTONE      SUNNY     55  50  82 E3        30.47S
WINDOM         MOSUNNY   54  48  82 NE5       30.48R
WORTHINGTON    PTSUNNY   52  49  89 E7        30.48S
JACKSON        CLOUDY    52  50  93 NE5       30.48R
TRACY          SUNNY     54  50  87 CALM      30.49R
$$
MNZ065>067-074>077-082>085-091>093-291600-
   South Central Minnesota

CITY           SKY/WX    TMP DP  RH WIND       PRES   REMARKS
MANKATO        CLOUDY    51  49  92 N8        30.48R
ST JAMES       CLOUDY    52  50  93 CALM      30.49R
FAIRMONT       FOG       49  49 100 N5        30.48R VSB 1/4
GLENCOE        SUNNY     55  53  90 CALM      30.48R
FARIBAULT      CLOUDY    52  50  93 N5        30.47R FOG
OWATONNA       CLOUDY    52  50  93 NE6       30.46R
WASECA         PTSUNNY   52  50  93 NE3       30.47S
ALBERT LEA     MOSUNNY   54  50  87 N5        30.45R
$$
MNZ078>079-086>088-094>096-291600-
   Southeast Minnesota

CITY           SKY/WX    TMP DP  RH WIND       PRES   REMARKS
ROCHESTER      CLOUDY    52  50  93 N8        30.45R
RED WING       PTSUNNY   55  50  82 NE5       30.44F
STANTON        FOG       49  48  95 NE6       30.46R VSB 1
DODGE CENTER   CLOUDY    54  50  87 N8        30.45R
WINONA         CLOUDY    54  50  87 N3        30.44R
AUSTIN         PTSUNNY   54  50  87 NE6       30.44R
PRESTON        CLOUDY    50  48  93 N10       30.43R
$$
ABBREVIATIONS USED IN REMARKS
   TC - TEMPERATURES IN CELSIUS
  WCI - WIND CHILL INDEX
   HX - HEAT INDEX
  VSB - VISIBILITY
$$




USA.gov is the U.S. government's official web portal to all federal, state and local government web resources and services.